Regional Weather Roundup
Issued by NWS

Home | Current Version | Previous Version | Text Only | Print | Product List | Glossary On
Versions: 1 2 3 4 5 6 7 8 9 10 11 12 13 14 15 16 17 18 19 20 21 22 23 24 25 26 27 28 29 30 31 32 33 34 35 36 37 38 39 40 41 42 43 44 45 46 47 48 49 50
000
ASUS43 KBIS 262201
RWRND

NORTH DAKOTA REGIONAL WEATHER ROUNDUP
NATIONAL WEATHER SERVICE BISMARCK ND
400 PM CST MON JAN 26 2015

NOTE: "FAIR" INDICATES FEW OR NO CLOUDS BELOW 12,000 FEET WITH NO
SIGNIFICANT WEATHER AND/OR OBSTRUCTIONS TO VISIBILITY.


NDZ001>003-009>011-017-262300-
NORTHWEST NORTH DAKOTA

CITY           SKY/WX    TMP DP  RH WIND       PRES   REMARKS
WILLISTON      MOSUNNY   49  32  52 SW6       29.92F
MINOT          SUNNY     43  32  65 W5        29.93S
MINOT AFB      MOSUNNY   42  38  88 W5        29.93R
$$

NDZ018>021-031>035-040>046-262300-
SOUTHWEST NORTH DAKOTA

CITY           SKY/WX    TMP DP  RH WIND       PRES   REMARKS
BISMARCK       SUNNY     49  32  52 N7        29.97R
DICKINSON      PTSUNNY   52  29  41 W6        29.94S
GARRISON         N/A     47  36  65 N3        29.95R
HETTINGER ARPT MOSUNNY   53  33  46 W9        29.97S
$$

NDZ004>008-012>016-024-026-027-054-262300-
NORTHEAST NORTH DAKOTA

CITY           SKY/WX    TMP DP  RH WIND       PRES   REMARKS
GRAND FORKS    MOCLDY    32  26  78 N16       29.93R
GRND FRKS AFB  SUNNY     33  27  76 N13       29.94R
DEVILS LAKE    SUNNY     37  30  75 NW12      29.93R
$$

NDZ022-023-025-028>030-036>039-047>053-262300-
SOUTHEAST NORTH DAKOTA

CITY           SKY/WX    TMP DP  RH WIND       PRES   REMARKS
FARGO          CLOUDY    36  29  75 N14       29.91R
JAMESTOWN      SUNNY     39  32  76 NW12      29.91R
$$




USA.gov is the U.S. government's official web portal to all federal, state and local government web resources and services.